Location: Prairie State College
(41.5244°N, 87.6382°W)
Time: 10:42:05
(UTC-05:00)

ARGOS Delta rocket - Visible Passes

Search period start: 19 April 2015 00:00
Search period end: 29 April 2015 00:00
Orbit: 637 x 838 km, 96.5° (Epoch: 18 April)

Date Brightness Start Highest point End Pass type
(mag) Time Alt. Az. Time Alt. Az. Time Alt. Az.
19 Apr 4.8 22:21:26 41° NE 22:21:26 41° NE 22:25:52 10° N visible
20 Apr 6.1 00:01:03 21° WNW 00:01:03 21° WNW 00:03:54 10° NW visible
20 Apr 5.7 21:36:08 18° ENE 21:36:24 19° ENE 21:40:07 10° NNE visible
20 Apr 4.9 23:15:45 48° NW 23:15:45 48° NW 23:19:57 10° NNW visible
21 Apr 4.5 22:30:28 51° NE 22:30:28 51° NE 22:35:11 10° N visible
22 Apr 6.3 00:10:05 18° WNW 00:10:05 18° WNW 00:12:42 10° NW visible
22 Apr 5.5 21:45:10 23° ENE 21:45:27 23° ENE 21:49:42 10° NNE visible
22 Apr 5.1 23:24:47 43° WNW 23:24:47 43° WNW 23:29:04 10° NNW visible
23 Apr 4.3 22:39:30 65° NE 22:39:30 65° NE 22:44:28 10° N visible
24 Apr 6.4 00:19:07 15° WNW 00:19:07 15° WNW 00:21:20 10° NW visible
24 Apr 5.2 21:54:12 28° ENE 21:54:32 28° ENE 21:59:12 10° N visible
24 Apr 5.3 23:33:49 36° WNW 23:33:49 36° WNW 23:38:07 10° NNW visible
25 Apr 6.1 21:08:55 11° ENE 21:10:18 12° ENE 21:12:33 10° NE visible
25 Apr 4.1 22:48:32 78° N 22:48:32 78° N 22:53:42 10° N visible
26 Apr 6.6 00:28:09 12° WNW 00:28:09 12° WNW 00:29:36 10° WNW visible
26 Apr 4.9 22:03:15 35° E 22:03:37 35° ENE 22:08:36 10° N visible
26 Apr 5.6 23:42:52 30° W 23:42:52 30° W 23:47:06 10° NNW visible
27 Apr 5.9 21:17:57 14° E 21:19:19 15° ENE 21:22:31 10° NNE visible
27 Apr 4.2 22:57:35 76° WNW 22:57:35 76° WNW 23:02:53 10° NNW visible
28 Apr 4.6 22:12:17 43° E 22:12:44 44° ENE 22:17:57 10° N visible
28 Apr 5.8 23:51:55 25° W 23:51:55 25° W 23:56:00 10° NW visible
